TimeCDT,TemperatureF,Dew PointF,Humidity,Sea Level PressureIn,VisibilityMPH,Wind Direction,Wind SpeedMPH,Gust SpeedMPH,PrecipitationIn,Events,Conditions,WindDirDegrees,DateUTC
12:15 AM,59.2,56.8,92,30.00,10.0,Calm,Calm,-,N/A,,Scattered Clouds,0,2013-10-19 05:15:00
12:35 AM,59.4,57.2,93,29.99,10.0,Calm,Calm,-,N/A,,Clear,0,2013-10-19 05:35:00
12:55 AM,59.7,57.2,91,29.99,10.0,Calm,Calm,-,N/A,,Clear,0,2013-10-19 05:55:00
1:15 AM,59.9,57.4,91,29.99,10.0,Calm,Calm,-,N/A,,Clear,0,2013-10-19 06:15:00
1:35 AM,59.2,57.0,93,29.99,10.0,Calm,Calm,-,N/A,,Clear,0,2013-10-19 06:35:00
1:55 AM,57.4,55.4,93,29.99,10.0,North,3.5,-,N/A,,Clear,350,2013-10-19 06:55:00
2:15 AM,58.3,56.3,93,30.00,10.0,Calm,Calm,-,N/A,,Clear,0,2013-10-19 07:15:00
2:35 AM,57.4,55.4,93,29.99,7.0,Calm,Calm,-,N/A,,Clear,0,2013-10-19 07:35:00
2:55 AM,57.2,55.4,94,30.00,7.0,Calm,Calm,-,N/A,,Clear,0,2013-10-19 07:55:00
3:15 AM,57.2,55.4,94,30.00,7.0,Calm,Calm,-,N/A,,Mostly Cloudy,0,2013-10-19 08:15:00
3:35 AM,57.2,55.4,94,30.00,10.0,NW,3.5,-,N/A,,Mostly Cloudy,320,2013-10-19 08:35:00
3:55 AM,57.2,55.0,92,29.99,10.0,Calm,Calm,-,N/A,,Scattered Clouds,0,2013-10-19 08:55:00
4:15 AM,56.3,54.5,94,29.99,10.0,Calm,Calm,-,N/A,,Scattered Clouds,0,2013-10-19 09:15:00
4:35 AM,56.1,54.3,94,29.99,7.0,Calm,Calm,-,N/A,,Clear,0,2013-10-19 09:35:00
4:55 AM,56.1,54.3,94,29.99,4.0,Calm,Calm,-,N/A,,Clear,0,2013-10-19 09:55:00
5:15 AM,55.0,53.2,94,29.99,10.0,NW,3.5,-,N/A,,Clear,310,2013-10-19 10:15:00
5:35 AM,56.3,54.5,94,30.00,10.0,NW,3.5,-,N/A,,Clear,310,2013-10-19 10:35:00
5:55 AM,56.5,54.5,93,30.01,10.0,NW,6.9,-,N/A,,Mostly Cloudy,310,2013-10-19 10:55:00
6:15 AM,57.2,55.0,92,30.02,10.0,NW,4.6,-,N/A,,Overcast,320,2013-10-19 11:15:00
6:35 AM,57.7,55.6,92,30.02,10.0,NW,3.5,-,N/A,,Overcast,310,2013-10-19 11:35:00
6:55 AM,58.1,55.8,92,30.03,10.0,NW,3.5,-,N/A,,Overcast,320,2013-10-19 11:55:00
7:15 AM,58.5,56.3,93,30.04,10.0,NW,4.6,-,N/A,,Overcast,310,2013-10-19 12:15:00
7:35 AM,59.0,56.1,90,30.04,10.0,NW,6.9,-,N/A,,Overcast,320,2013-10-19 12:35:00
7:55 AM,58.1,54.0,86,30.05,10.0,NNW,11.5,16.1,N/A,,Overcast,330,2013-10-19 12:55:00
8:15 AM,57.9,52.9,83,30.07,10.0,NNW,12.7,19.6,N/A,,Overcast,340,2013-10-19 13:15:00
8:35 AM,57.9,52.2,81,30.07,10.0,NNW,11.5,18.4,N/A,,Overcast,330,2013-10-19 13:35:00
8:55 AM,56.1,50.4,81,30.09,10.0,NNW,11.5,18.4,N/A,,Overcast,340,2013-10-19 13:55:00
9:15 AM,55.9,50.0,80,30.10,10.0,NNW,9.2,19.6,N/A,,Overcast,330,2013-10-19 14:15:00
9:35 AM,55.0,49.1,80,30.11,10.0,WNW,11.5,17.3,N/A,,Overcast,300,2013-10-19 14:35:00
9:55 AM,54.7,49.1,81,30.12,10.0,NW,8.1,18.4,N/A,,Overcast,310,2013-10-19 14:55:00
10:15 AM,54.1,48.7,82,30.12,10.0,NW,8.1,-,N/A,,Overcast,320,2013-10-19 15:15:00
10:35 AM,53.8,48.2,81,30.13,10.0,WNW,9.2,17.3,N/A,,Overcast,300,2013-10-19 15:35:00
10:55 AM,53.8,48.2,81,30.13,10.0,NW,8.1,16.1,N/A,,Overcast,320,2013-10-19 15:55:00
11:15 AM,54.5,48.6,80,30.14,10.0,NW,6.9,-,N/A,,Overcast,320,2013-10-19 16:15:00
11:35 AM,54.3,47.8,79,30.14,10.0,WNW,8.1,-,N/A,,Overcast,300,2013-10-19 16:35:00
11:55 AM,54.5,47.8,78,30.13,10.0,NW,9.2,-,N/A,,Overcast,310,2013-10-19 16:55:00
12:35 PM,54.9,47.3,76,30.13,10.0,North,8.1,-,N/A,,Overcast,350,2013-10-19 17:35:00
1:35 PM,59.7,46.4,61,30.11,10.0,North,6.9,-,N/A,,Scattered Clouds,350,2013-10-19 18:35:00
1:55 PM,61.9,46.0,56,30.10,10.0,NNW,8.1,-,N/A,,Clear,340,2013-10-19 18:55:00
2:15 PM,63.5,46.9,55,30.10,10.0,North,3.5,-,N/A,,Clear,350,2013-10-19 19:15:00
2:35 PM,63.9,45.3,51,30.09,10.0,NNW,9.2,-,N/A,,Scattered Clouds,340,2013-10-19 19:35:00
2:55 PM,64.0,44.8,50,30.09,10.0,North,6.9,-,N/A,,Clear,350,2013-10-19 19:55:00
3:15 PM,64.9,45.5,49,30.09,10.0,NNW,5.8,-,N/A,,Clear,330,2013-10-19 20:15:00
3:35 PM,64.8,44.4,48,30.08,10.0,NNW,8.1,-,N/A,,Clear,330,2013-10-19 20:35:00
3:55 PM,65.5,44.6,47,30.08,10.0,North,5.8,-,N/A,,Clear,350,2013-10-19 20:55:00
4:15 PM,65.1,44.8,48,30.08,10.0,West,6.9,-,N/A,,Clear,280,2013-10-19 21:15:00
4:35 PM,65.3,45.1,48,30.08,10.0,WNW,5.8,-,N/A,,Clear,290,2013-10-19 21:35:00
4:55 PM,64.6,45.0,49,30.08,10.0,WNW,4.6,-,N/A,,Clear,300,2013-10-19 21:55:00
5:15 PM,64.4,45.7,51,30.08,10.0,NW,3.5,-,N/A,,Clear,310,2013-10-19 22:15:00
5:35 PM,63.5,46.0,53,30.08,10.0,NW,4.6,-,N/A,,Clear,310,2013-10-19 22:35:00
5:55 PM,62.6,46.4,55,30.08,10.0,NW,4.6,-,N/A,,Clear,320,2013-10-19 22:55:00
6:15 PM,60.4,47.7,63,30.08,10.0,Calm,Calm,-,N/A,,Clear,0,2013-10-19 23:15:00
6:35 PM,57.7,49.1,73,30.08,10.0,Calm,Calm,-,N/A,,Clear,0,2013-10-19 23:35:00
6:55 PM,55.8,49.1,78,30.08,10.0,Calm,Calm,-,N/A,,Clear,0,2013-10-19 23:55:00
7:15 PM,54.5,48.7,81,30.09,10.0,Calm,Calm,-,N/A,,Clear,0,2013-10-20 00:15:00
7:35 PM,53.2,49.3,86,30.09,10.0,Calm,Calm,-,N/A,,Clear,0,2013-10-20 00:35:00
7:55 PM,52.3,49.3,89,30.09,10.0,Calm,Calm,-,N/A,,Clear,0,2013-10-20 00:55:00
8:15 PM,51.3,48.6,90,30.09,10.0,Calm,Calm,-,N/A,,Clear,0,2013-10-20 01:15:00
8:35 PM,50.9,48.2,90,30.09,10.0,Calm,Calm,-,N/A,,Clear,0,2013-10-20 01:35:00
8:55 PM,50.4,48.0,92,30.10,10.0,Calm,Calm,-,N/A,,Clear,0,2013-10-20 01:55:00
9:15 PM,49.6,47.3,92,30.10,10.0,Calm,Calm,-,N/A,,Clear,0,2013-10-20 02:15:00
9:35 PM,49.3,47.3,93,30.09,10.0,Calm,Calm,-,N/A,,Clear,0,2013-10-20 02:35:00
9:55 PM,48.7,46.6,92,30.10,10.0,Calm,Calm,-,N/A,,Clear,0,2013-10-20 02:55:00
10:15 PM,48.4,46.4,93,30.10,10.0,Calm,Calm,-,N/A,,Clear,0,2013-10-20 03:15:00
10:35 PM,47.3,45.5,93,30.10,10.0,Calm,Calm,-,N/A,,Clear,0,2013-10-20 03:35:00
10:55 PM,47.5,45.5,93,30.09,10.0,Calm,Calm,-,N/A,,Clear,0,2013-10-20 03:55:00
11:15 PM,47.3,45.3,93,30.09,10.0,Calm,Calm,-,N/A,,Clear,0,2013-10-20 04:15:00
11:35 PM,46.8,45.0,93,30.09,10.0,Calm,Calm,-,N/A,,Clear,0,2013-10-20 04:35:00
11:55 PM,46.0,44.2,93,30.09,10.0,Calm,Calm,-,N/A,,Clear,0,2013-10-20 04:55:00